Waikoloa, HI (96738)

4:35 PM HST on February 07, 2016 (GMT -1000)
Waikoloa Village | | Change Station
CLOSE
Current Station
Personal Weather Station
Location: Waikoloa Village, HI
Elevation: 994 ft
Nearby Weather Stations

Elev 994 ft 19.93 °N, 155.79 °W | Updated 10 minutes ago

Clear
Clear
70.3 °F
Feels Like 76 °F
N
27.9
Wind Variable Wind from East

Today
High -- | Low -- °F
--% Chance of Precip.
Yesterday
High -- | Low -- °F
Precip. -- in
Pressure 29.90 in
Visibility 10.0 miles
Clouds Clear
Heat Index 76 °F
Dew Point 56 °F
Humidity 61%
Rainfall 0.66 in
Snow Depth Not available.
6:56 AM 6:18 PM
Waning Crescent, 0% visible
METAR PHKO 072353Z 35025G30KT 10SM CLR 26/17 A2990 RMK AO2 PK WND 35030/2352 SLP125 60000 T02610167 10267 20217 57037
Pressure 29.90 in
Visibility 10.0 miles
Clouds Clear
Heat Index 76 °F
Dew Point 56 °F
Humidity 61%
Rainfall 0.66 in
Snow Depth Not available.
6:56 AM 6:18 PM
Waning Crescent, 0% visible
METAR PHKO 072353Z 35025G30KT 10SM CLR 26/17 A2990 RMK AO2 PK WND 35030/2352 SLP125 60000 T02610167 10267 20217 57037

10-Day Weather Forecast

Almanac

Astronomy

Feb. 07, 2016 Rise Set
Actual Time
Civil Twilight
Nautical Twilight
Astronomical Twilight
Moon
Length of Visible Light
Length of Day
Tomorrow will be .
, % of the Moon is Illuminated

Today's Extremes

State Highs State Lows

Community

WunderPhotos

Upload Photos

1,891,373 photos uploaded!

WunderBlog® & News

Nearby

Air Quality

  Air Quality AQ Index Pollutant
Not available.

Snow Depth

Station Depth Elevation

Earthquake Activity

City Distance Mag. Time & Date
Minimum magnitude displayed is 2.5.

Coastal Water Temperatures

Place Temperature

Stations

Nearby Weather Stations

Station Location Temp. Windchill Dew Point Humidity Wind Precip. Elev Updated Type
                   

Watches & Warnings

There are currently no watches in effect.